| time (UTC) | temp C | wind direction | speed KPH | gust KPH | rain 1hr cm | rain 24hr cm | rain mn cm | humidity % | barometer mb |
| 20260506221005 | 16 | 9 | 1.6 | 4.8 | 0.05 | 0.13 | 0.13 | 80 | 1013.4 |
| 20260506220005 | 16 | 101 | 0.0 | 4.8 | 0.05 | 0.13 | 0.13 | 78 | 1013.4 |
| 20260506215006 | 16 | 355 | 8.0 | 8.0 | 0.05 | 0.13 | 0.13 | 76 | 1013.2 |
| 20260506214004 | 16 | 313 | 3.2 | 16.1 | 0.00 | 0.08 | 0.08 | 73 | 1013.4 |
| 20260506213211 | 16 | 36 | 1.6 | 12.9 | 0.00 | 0.08 | 0.08 | 73 | 1013.4 |
| 20260506212004 | 16 | 30 | 4.8 | 14.5 | 0.00 | 0.08 | 0.08 | 73 | 1013.5 |
| 20260506211004 | 16 | 9 | 4.8 | 9.7 | 0.00 | 0.08 | 0.08 | 73 | 1013.5 |
| 20260506210211 | 16 | 351 | 4.8 | 12.9 | 0.00 | 0.08 | 0.08 | 74 | 1013.6 |
| 20260506205004 | 16 | 5 | 12.9 | 17.7 | 0.00 | 0.08 | 0.08 | 74 | 1013.5 |
| 20260506204004 | 16 | 22 | 6.4 | 14.5 | 0.00 | 0.08 | 0.08 | 74 | 1014.0 |
| 20260506203004 | 16 | 22 | 6.4 | 12.9 | 0.00 | 0.08 | 0.08 | 74 | 1013.9 |
| 20260506202004 | 16 | 5 | 3.2 | 16.1 | 0.00 | 0.08 | 0.08 | 75 | 1013.8 |
| 20260506201004 | 16 | 302 | 3.2 | 9.7 | 0.00 | 0.08 | 0.08 | 74 | 1014.1 |
| 20260506200004 | 16 | 336 | 4.8 | 12.9 | 0.00 | 0.08 | 0.08 | 75 | 1014.0 |
| 20260506195004 | 15 | 23 | 12.9 | 14.5 | 0.00 | 0.08 | 0.08 | 76 | 1014.3 |
| 20260506194211 | 15 | 338 | 8.0 | 16.1 | 0.00 | 0.08 | 0.08 | 77 | 1014.5 |
| 20260506193004 | 14 | 342 | 9.7 | 17.7 | 0.00 | 0.08 | 0.08 | 79 | 1014.5 |
| 20260506192004 | 14 | 22 | 4.8 | 16.1 | 0.00 | 0.08 | 0.08 | 80 | 1014.6 |
| 20260506191004 | 13 | 334 | 3.2 | 14.5 | 0.00 | 0.08 | 0.08 | 81 | 1014.9 |
| 20260506190004 | 13 | 340 | 3.2 | 8.0 | 0.00 | 0.08 | 0.08 | 82 | 1015.0 |
| 20260506185004 | 13 | 14 | 4.8 | 6.4 | 0.00 | 0.08 | 0.08 | 82 | 1015.1 |
| 20260506184004 | 12 | 360 | 4.8 | 8.0 | 0.00 | 0.08 | 0.08 | 82 | 1015.3 |
| 20260506183005 | 12 | 333 | 1.6 | 6.4 | 0.00 | 0.08 | 0.08 | 83 | 1015.4 |
| 20260506182004 | 12 | 17 | 1.6 | 9.7 | 0.00 | 0.08 | 0.08 | 83 | 1015.3 |
| 20260506181004 | 12 | 25 | 8.0 | 17.7 | 0.00 | 0.08 | 0.08 | 82 | 1015.1 |
| 20260506180005 | 12 | 350 | 6.4 | 22.5 | 0.00 | 0.08 | 0.08 | 83 | 1014.7 |
| 20260506175005 | 12 | 17 | 4.8 | 25.7 | 0.00 | 0.08 | 0.08 | 83 | 1014.4 |
| 20260506174005 | 12 | 350 | 12.9 | 22.5 | 0.00 | 0.08 | 0.08 | 84 | 1014.1 |
| 20260506173004 | 12 | 5 | 14.5 | 24.1 | 0.00 | 0.08 | 0.08 | 84 | 1014.1 |
| 20260506172004 | 12 | 350 | 12.9 | 20.9 | 0.00 | 0.08 | 0.08 | 85 | 1014.1 |
| 20260506171004 | 12 | 5 | 8.0 | 16.1 | 0.00 | 0.08 | 0.08 | 85 | 1014.5 |
| 20260506170004 | 12 | 14 | 8.0 | 17.7 | 0.00 | 0.08 | 0.08 | 86 | 1014.7 |
| 20260506165211 | 12 | 330 | 4.8 | 17.7 | 0.00 | 0.08 | 0.08 | 86 | 1014.5 |
| 20260506164004 | 12 | 20 | 8.0 | 16.1 | 0.00 | 0.08 | 0.08 | 87 | 1014.3 |
| 20260506163004 | 11 | 16 | 8.0 | 17.7 | 0.00 | 0.08 | 0.08 | 86 | 1014.7 |
| 20260506162004 | 11 | 33 | 6.4 | 16.1 | 0.00 | 0.08 | 0.08 | 86 | 1014.6 |
| 20260506161003 | 11 | 355 | 6.4 | 17.7 | 0.00 | 0.08 | 0.08 | 86 | 1014.4 |
| 20260506160004 | 11 | 43 | 6.4 | 19.3 | 0.00 | 0.08 | 0.08 | 87 | 1014.7 |
| 20260506155004 | 11 | 42 | 6.4 | 16.1 | 0.00 | 0.08 | 0.08 | 87 | 1014.3 |
| 20260506154004 | 11 | 328 | 4.8 | 19.3 | 0.00 | 0.08 | 0.08 | 88 | 1014.1 |
| 20260506153004 | 12 | 46 | 11.3 | 20.9 | 0.03 | 0.08 | 0.08 | 89 | 1013.9 |
| 20260506152004 | 11 | 5 | 12.9 | 24.1 | 0.08 | 0.08 | 0.08 | 90 | 1013.4 |
| 20260506151004 | 11 | 40 | 8.0 | 16.1 | 0.08 | 0.08 | 0.08 | 89 | 1013.7 |
| 20260506150211 | 11 | 355 | 3.2 | 9.7 | 0.08 | 0.08 | 0.08 | 89 | 1015.2 |
| 20260506145004 | 11 | 319 | 3.2 | 12.9 | 0.08 | 0.08 | 0.08 | 88 | 1015.4 |
| 20260506144004 | 11 | 9 | 11.3 | 17.7 | 0.08 | 0.08 | 0.08 | 87 | 1015.1 |
| 20260506143004 | 11 | 28 | 6.4 | 14.5 | 0.05 | 0.05 | 0.05 | 86 | 1015.0 |
| 20260506142004 | 11 | 355 | 6.4 | 9.7 | 0.00 | 0.00 | 0.00 | 84 | 1016.1 |
| 20260506141212 | 11 | 355 | 4.8 | 12.9 | 0.00 | 0.00 | 0.00 | 84 | 1016.3 |
| 20260506140004 | 11 | 327 | 4.8 | 24.1 | 0.00 | 0.00 | 0.00 | 83 | 1014.0 |
| 20260506135004 | 11 | 10 | 12.9 | 22.5 | 0.00 | 0.00 | 0.00 | 82 | 1013.4 |
| 20260506134004 | 11 | 48 | 9.7 | 17.7 | 0.00 | 0.00 | 0.00 | 81 | 1014.4 |
| 20260506133004 | 11 | 19 | 11.3 | 20.9 | 0.00 | 0.00 | 0.00 | 81 | 1014.6 |
| 20260506132004 | 12 | 10 | 11.3 | 20.9 | 0.00 | 0.00 | 0.00 | 81 | 1014.4 |
| 20260506131004 | 12 | 314 | 9.7 | 22.5 | 0.00 | 0.00 | 0.00 | 80 | 1013.9 |
| 20260506130211 | 12 | 35 | 9.7 | 19.3 | 0.00 | 0.00 | 0.00 | 80 | 1013.6 |
| 20260506125004 | 12 | 346 | 9.7 | 19.3 | 0.00 | 0.00 | 0.00 | 79 | 1012.9 |
| 20260506124004 | 12 | 5 | 9.7 | 17.7 | 0.00 | 0.00 | 0.00 | 79 | 1012.9 |
| 20260506123004 | 12 | 312 | 9.7 | 19.3 | 0.00 | 0.00 | 0.00 | 78 | 1012.8 |
| 20260506122004 | 12 | 323 | 6.4 | 20.9 | 0.00 | 0.00 | 0.00 | 78 | 1012.6 |
| 20260506121004 | 13 | 350 | 6.4 | 17.7 | 0.00 | 0.00 | 0.00 | 78 | 1012.4 |
| 20260506120005 | 13 | 342 | 4.8 | 19.3 | 0.00 | 0.00 | 0.00 | 77 | 1012.3 |
| 20260506115005 | 13 | 344 | 8.0 | 19.3 | 0.00 | 0.00 | 0.00 | 77 | 1012.4 |
| 20260506114212 | 13 | 324 | 6.4 | 16.1 | 0.00 | 0.00 | 0.00 | 77 | 1012.2 |
| 20260506113004 | 14 | 338 | 4.8 | 14.5 | 0.00 | 0.00 | 0.00 | 78 | 1012.2 |
| 20260506112004 | 14 | 360 | 14.5 | 16.1 | 0.00 | 0.00 | 0.00 | 77 | 1012.0 |
| 20260506111004 | 14 | 338 | 14.5 | 19.3 | 0.00 | 0.00 | 0.00 | 76 | 1011.9 |
| 20260506110004 | 14 | 348 | 6.4 | 16.1 | 0.00 | 0.00 | 0.00 | 76 | 1011.5 |
| 20260506105004 | 14 | 29 | 6.4 | 14.5 | 0.00 | 0.00 | 0.00 | 77 | 1011.4 |
| 20260506104004 | 14 | 22 | 9.7 | 14.5 | 0.00 | 0.00 | 0.00 | 77 | 1011.5 |
| 20260506103004 | 14 | 24 | 8.0 | 16.1 | 0.00 | 0.00 | 0.00 | 77 | 1011.1 |
| 20260506102004 | 14 | 347 | 8.0 | 16.1 | 0.00 | 0.00 | 0.00 | 77 | 1010.9 |
| 20260506101004 | 15 | 329 | 4.8 | 14.5 | 0.00 | 0.00 | 0.00 | 78 | 1010.8 |
| 20260506100211 | 15 | 329 | 4.8 | 12.9 | 0.00 | 0.00 | 0.00 | 78 | 1010.7 |
| 20260506095004 | 15 | 15 | 6.4 | 16.1 | 0.00 | 0.00 | 0.00 | 78 | 1010.4 |
| 20260506094004 | 15 | 355 | 4.8 | 14.5 | 0.00 | 0.00 | 0.00 | 79 | 1010.2 |
| 20260506093004 | 15 | 331 | 6.4 | 14.5 | 0.00 | 0.00 | 0.00 | 79 | 1010.3 |
| 20260506092004 | 15 | 17 | 4.8 | 14.5 | 0.00 | 0.00 | 0.00 | 79 | 1010.2 |
| 20260506091004 | 15 | 338 | 9.7 | 14.5 | 0.00 | 0.00 | 0.00 | 79 | 1010.2 |
| 20260506090004 | 15 | 5 | 4.8 | 16.1 | 0.00 | 0.00 | 0.00 | 79 | 1010.2 |
| 20260506085004 | 15 | 5 | 6.4 | 14.5 | 0.00 | 0.00 | 0.00 | 79 | 1010.2 |
| 20260506084004 | 15 | 360 | 8.0 | 12.9 | 0.00 | 0.00 | 0.00 | 79 | 1010.2 |
| 20260506083004 | 15 | 331 | 6.4 | 12.9 | 0.00 | 0.00 | 0.00 | 79 | 1010.0 |
| 20260506082004 | 15 | 5 | 8.0 | 14.5 | 0.00 | 0.00 | 0.00 | 79 | 1009.9 |
| 20260506081004 | 15 | 360 | 19.3 | 19.3 | 0.00 | 0.00 | 0.00 | 79 | 1009.8 |
| 20260506073004 | 16 | 36 | 6.4 | 12.9 | 0.00 | 0.00 | 0.00 | 80 | 1009.7 |
| 20260506072005 | 16 | 351 | 6.4 | 9.7 | 0.00 | 0.00 | 0.00 | 79 | 1009.7 |
| 20260506071004 | 16 | 14 | 4.8 | 8.0 | 0.00 | 0.00 | 0.00 | 79 | 1009.6 |
| 20260506062004 | 16 | 346 | 6.4 | 12.9 | 0.00 | 0.00 | 0.00 | 76 | 1009.3 |
| 20260506061004 | 16 | 341 | 4.8 | 14.5 | 0.00 | 0.00 | 0.00 | 76 | 1009.3 |
| 20260506051004 | 17 | 28 | 4.8 | 16.1 | 0.00 | 0.00 | 0.00 | 74 | 1009.4 |
| 20260506045004 | 18 | 18 | 3.2 | 16.1 | 0.00 | 0.00 | 0.00 | 73 | 1009.4 |
| 20260506044004 | 18 | 349 | 8.0 | 16.1 | 0.00 | 0.00 | 0.00 | 73 | 1009.3 |
| 20260506043211 | 18 | 11 | 6.4 | 17.7 | 0.00 | 0.00 | 0.00 | 72 | 1009.3 |
| 20260506042004 | 18 | 347 | 9.7 | 16.1 | 0.00 | 0.00 | 0.00 | 72 | 1009.1 |
| 20260506041004 | 19 | 5 | 4.8 | 17.7 | 0.00 | 0.00 | 0.00 | 72 | 1009.4 |
| 20260506040004 | 19 | 20 | 11.3 | 17.7 | 0.00 | 0.00 | 0.00 | 71 | 1009.3 |
| 20260506035004 | 19 | 338 | 8.0 | 17.7 | 0.00 | 0.00 | 0.00 | 71 | 1009.2 |
| 20260506034004 | 20 | 355 | 6.4 | 16.1 | 0.00 | 0.00 | 0.00 | 71 | 1009.1 |
| 20260506033005 | 20 | 334 | 3.2 | 19.3 | 0.00 | 0.00 | 0.00 | 71 | 1008.9 |
| 20260506032211 | 20 | 351 | 14.5 | 20.9 | 0.00 | 0.00 | 0.00 | 70 | 1008.7 |
| 20260506031004 | 20 | 360 | 16.1 | 17.7 | 0.00 | 0.00 | 0.00 | 70 | 1008.2 |
| 20260506030004 | 20 | 5 | 8.0 | 16.1 | 0.00 | 0.00 | 0.00 | 70 | 1007.9 |
| 20260506025004 | 20 | 342 | 9.7 | 16.1 | 0.00 | 0.00 | 0.00 | 69 | 1007.6 |
| 20260506024004 | 21 | 360 | 6.4 | 17.7 | 0.00 | 0.00 | 0.00 | 69 | 1007.5 |
| 20260506023004 | 21 | 346 | 6.4 | 22.5 | 0.00 | 0.00 | 0.00 | 68 | 1007.3 |
| 20260506022004 | 21 | 342 | 12.9 | 17.7 | 0.00 | 0.00 | 0.00 | 68 | 1007.0 |
| 20260506021004 | 22 | 39 | 16.1 | 17.7 | 0.00 | 0.00 | 0.00 | 67 | 1006.8 |
| 20260506020004 | 22 | 355 | 8.0 | 14.5 | 0.00 | 0.00 | 0.00 | 68 | 1006.7 |
| 20260506015004 | 22 | 338 | 8.0 | 14.5 | 0.00 | 0.00 | 0.00 | 67 | 1006.5 |
| 20260506014004 | 22 | 14 | 4.8 | 14.5 | 0.00 | 0.00 | 0.00 | 66 | 1006.3 |
| 20260506013004 | 22 | 323 | 3.2 | 12.9 | 0.00 | 0.00 | 0.00 | 65 | 1005.9 |
| 20260506012004 | 23 | 9 | 8.0 | 16.1 | 0.00 | 0.00 | 0.00 | 64 | 1005.6 |
| 20260506011004 | 23 | 335 | 6.4 | 16.1 | 0.00 | 0.00 | 0.00 | 64 | 1005.7 |
| 20260506010005 | 23 | 9 | 4.8 | 14.5 | 0.00 | 0.00 | 0.00 | 63 | 1005.3 |
| 20260506005004 | 24 | 44 | 4.8 | 14.5 | 0.00 | 0.00 | 0.00 | 62 | 1005.4 |
| 20260506004005 | 24 | 5 | 14.5 | 19.3 | 0.00 | 0.00 | 0.00 | 62 | 1005.4 |
| 20260506003005 | 25 | 355 | 9.7 | 16.1 | 0.00 | 0.00 | 0.00 | 61 | 1004.9 |
| 20260506002003 | 25 | 335 | 4.8 | 20.9 | 0.00 | 0.00 | 0.00 | 59 | 1004.8 |
| 20260506001004 | 26 | 33 | 14.5 | 22.5 | 0.00 | 0.00 | 0.00 | 58 | 1004.7 |
| 20260506000004 | 27 | 30 | 6.4 | 20.9 | 0.00 | 0.00 | 0.00 | 58 | 1004.7 |
| 20260505235004 | 28 | 355 | 16.1 | 25.7 | 0.00 | 0.00 | 0.00 | 57 | 1004.6 |
| 20260505234004 | 29 | 12 | 16.1 | 25.7 | 0.00 | 0.00 | 0.00 | 55 | 1004.2 |
| 20260505233004 | 29 | 44 | 8.0 | 20.9 | 0.00 | 0.00 | 0.00 | 50 | 1003.8 |
| 20260505232004 | 31 | 67 | 12.9 | 32.2 | 0.00 | 0.00 | 0.00 | 46 | 1003.7 |
| 20260505231004 | 33 | 161 | 3.2 | 16.1 | 0.00 | 0.00 | 0.00 | 40 | 1003.4 |
| 20260505230004 | 33 | 234 | 4.8 | 8.0 | 0.00 | 0.00 | 0.00 | 41 | 1003.3 |
| 20260505225004 | 33 | 259 | 6.4 | 8.0 | 0.00 | 0.00 | 0.00 | 38 | 1003.3 |
| 20260505224004 | 34 | 211 | 6.4 | 9.7 | 0.00 | 0.00 | 0.00 | 37 | 1003.3 |
| 20260505223004 | 34 | 189 | 3.2 | 9.7 | 0.00 | 0.00 | 0.00 | 38 | 1003.2 |